{"data":{"norad_id":64031,"intl_designator":"2025-102K","name":"STARLINK-34024","alt_names":[],"object_type":"PAYLOAD","status":"ACTIVE","operator":null,"country":"US","launch_date":"2025-05-16","launch_site_code":"AFWTR","launch_vehicle":null,"mission":null,"orbit_class":"UNKNOWN","rcs_meters":null,"size_class":null,"mass_kg":null,"dimensions":null,"purposes":["comms"],"wikipedia_slug":null,"has_3d_model":false,"image_url":null,"decayed_at":null,"tle_current":{"epoch":"2026-09-20T22:15:09.627264Z","epoch_age_seconds":106701,"freshness":"FRESH","line1":"1 64031U 25102K   26263.92719476  .00011744  00000+0  40170-3 0  9999","line2":"2 64031  70.0018 339.9264 0003262 270.0473  90.0328 15.30432122 75191","mean_motion":15.30432122,"eccentricity":0.0003262,"inclination_deg":70.0018,"raan_deg":339.9264,"arg_perigee_deg":270.0473,"mean_anomaly_deg":90.0328,"bstar":0.0004017,"rev_number":7519,"period_min":94.091072665031,"perigee_km":472.28674517568,"apogee_km":476.75741996115,"semimajor_km":6852.6590825684,"source":"CELESTRAK","updated_at":"2026-09-21T09:00:35.187668Z"}}}